User: anonymous   Login
Location: Unspecified
(0.0000°N, 0.0000°E)
Time: 23:37:42
(UTC+00:00)
Language:

Max Valier Satellite - Orbit

View from above orbital plane
View from above orbital plane
View from above satellite
View from above satellite

Ground track
Ground track

The orbit data is extracted from the following two-line orbital elements,

1 42778U 17036P   24175.69787456  .00879192  41934-3  11374-2 0  9994
2 42778  97.0706 214.5113 0005885 204.5217 155.5787 16.07199586390634
Epoch (UTC): 23 June 2024 16:44:56
Eccentricity: 0.0005885
inclination: 97.0706°
perigee height: 250 km
apogee height: 258 km
right ascension of ascending node: 214.5113°
argument of perigee: 204.5217°
revolutions per day: 16.07199586
mean anomaly at epoch: 155.5787°
orbit number at epoch: 39063

The dashed part of the orbit path shows where the satellite is in the earth's shadow,  

DLR